Weather History for Szolnok, Hungary

Change the Weather History Date:

Tuesday, July 23, 2013

  Actual Average (LHBP) Record (LHBP)
Temperature  
Mean Temperature 74 °F -  
Max Temperature 89 °F 80 °F 93 °F (1998)
Min Temperature 60 °F 59 °F 44 °F (1996)
Cooling Degree Days 10    
Growing Degree Days 24 (Base 50)    
Moisture  
Dew Point 51 °F    
Average Humidity 45    
Maximum Humidity 77    
Minimum Humidity 21    
Precipitation  
Precipitation 0.00 in - - ()
Sea Level Pressure  
Sea Level Pressure 29.90 in    
Wind  
Wind Speed 5 mph ()    
Max Wind Speed 11 mph    
Max Gust Speed -    
Visibility 6.2 miles    
Events      
Averages and records for this station are not official NWS values.
T = Trace of Precipitation, MM = Missing Value Source: Averaged Metar Reports

Daily Weather History Graph

Daily Weather History Graph

Search for Another Location

Airport:

Trip Planner

Search our weather history database for the weather conditions in past years. The results will help you decide how hot, cold, wet, or windy it might be!

Date:

Astronomy

Jul. 23, 2013 Rise Set
Actual Time 5:07 AM CEST 8:23 PM CEST
Civil Twilight 4:30 AM CEST 9:00 PM CEST
Nautical Twilight 3:41 AM CEST 9:48 PM CEST
Astronomical Twilight 2:40 AM CEST 10:48 PM CEST
Moon 8:28 PM CEST (7/23) 6:01 AM CEST (7/23)
Length of Visible Light 16h 29m
Length of Day
15h 15m
Full, 99% of the Moon is Illuminated
Jul 23
Full
Jul 29
Last Quarter
Aug 6
New
Aug 14
First Quarter
Aug 21
Full

Hourly Weather History & Observations

Time (CEST) Temp. Dew Point Humidity Pressure Visibility Wind Dir Wind Speed Gust Speed Precip Events Conditions
12:15 AM 68.0 °F 51.8 °F 56% 29.92 in - West 4.5 mph - N/A   Clear
12:45 AM 68.0 °F 51.8 °F 56% 29.92 in - West 6.7 mph - N/A   Clear
1:15 AM 66.2 °F 51.8 °F 60% 29.92 in - WSW 6.7 mph - N/A   Clear
1:45 AM 68.0 °F 50.0 °F 52% 29.92 in - West 6.7 mph - N/A   Clear
2:15 AM 64.4 °F 51.8 °F 64% 29.92 in - West 4.5 mph - N/A   Clear
2:45 AM 64.4 °F 51.8 °F 64% 29.92 in - West 6.7 mph - N/A   Clear
3:15 AM 64.4 °F 51.8 °F 64% 29.92 in - West 4.5 mph - N/A   Clear
3:45 AM - - N/A% - - West 6.7 mph - N/A   Clear
4:15 AM 64.4 °F 51.8 °F 64% 29.89 in - West 4.5 mph - N/A   Clear
4:45 AM 60.8 °F 53.6 °F 77% 29.92 in - West 4.5 mph - N/A   Clear
5:15 AM 62.6 °F 53.6 °F 72% 29.89 in - WNW 6.7 mph - N/A   Clear
5:45 AM 62.6 °F 53.6 °F 72% 29.92 in - NW 4.5 mph - N/A   Clear
6:15 AM 64.4 °F 53.6 °F 68% 29.92 in - NW 4.5 mph - N/A   Clear
6:45 AM 68.0 °F 53.6 °F 60% 29.92 in - NW 4.5 mph - N/A   Clear
7:15 AM 69.8 °F 53.6 °F 56% 29.92 in - North 4.5 mph - N/A   Clear
7:45 AM 69.8 °F 53.6 °F 56% 29.92 in - North 4.5 mph - N/A   Clear
8:15 AM 71.6 °F 55.4 °F 57% 29.92 in - North 4.5 mph - N/A   Clear
8:45 AM 75.2 °F 55.4 °F 50% 29.92 in - North 4.5 mph - N/A   Clear
9:15 AM 78.8 °F 55.4 °F 44% 29.92 in - ENE 6.7 mph - N/A   Clear
9:45 AM 78.8 °F 53.6 °F 42% 29.92 in - ENE 6.7 mph - N/A   Clear
10:15 AM 82.4 °F 51.8 °F 35% 29.92 in - NE 2.2 mph - N/A   Clear
10:45 AM 82.4 °F 51.8 °F 35% 29.92 in - NE 2.2 mph - N/A   Clear
11:15 AM 82.4 °F 50.0 °F 32% 29.92 in - WNW 2.2 mph - N/A   Clear
11:45 AM 82.4 °F 51.8 °F 35% 29.92 in - NW 6.7 mph - N/A   Clear
12:15 PM 82.4 °F 51.8 °F 35% 29.92 in - WSW 6.7 mph - N/A   Clear
12:45 PM - - N/A% - - WNW 6.7 mph - N/A   Clear
1:15 PM 86.0 °F 46.4 °F 25% 29.89 in - WNW 6.7 mph - N/A   Clear
1:45 PM 87.8 °F 42.8 °F 21% 29.89 in - NNW 8.9 mph - N/A   Clear
2:15 PM 87.8 °F 46.4 °F 24% 29.89 in - NNW 6.7 mph - N/A   Clear
2:45 PM 89.6 °F 46.4 °F 22% 29.89 in - NNW 8.9 mph - N/A   Clear
3:15 PM 87.8 °F 46.4 °F 24% 29.89 in - NW 11.2 mph - N/A   Clear
3:45 PM - - N/A% - - WNW 6.7 mph - N/A   Clear
4:15 PM 89.6 °F 46.4 °F 22% 29.89 in - WNW 11.2 mph - N/A   Clear
4:45 PM 89.6 °F 48.2 °F 24% 29.86 in - WNW 8.9 mph - N/A   Clear
5:15 PM 89.6 °F 48.2 °F 24% 29.86 in 6.2 mi WNW 11.2 mph - N/A   Scattered Clouds
5:45 PM 87.8 °F 46.4 °F 24% 29.86 in - WNW 8.9 mph - N/A   Clear
6:15 PM 87.8 °F 46.4 °F 24% 29.86 in - NW 6.7 mph - N/A   Clear
6:45 PM - - N/A% - - WNW 6.7 mph - N/A   Clear
7:15 PM 86.0 °F 48.2 °F 27% 29.86 in - NW 4.5 mph - N/A   Clear
7:45 PM 84.2 °F 50.0 °F 30% 29.86 in - NW 4.5 mph - N/A   Clear
8:15 PM 80.6 °F 51.8 °F 37% 29.86 in - NW 4.5 mph - N/A   Clear
8:45 PM 78.8 °F 53.6 °F 42% 29.86 in - WNW 2.2 mph - N/A   Clear
9:15 PM 77.0 °F 53.6 °F 44% 29.86 in - West 4.5 mph - N/A   Clear
9:45 PM - - N/A% - - NW 6.7 mph - N/A   Clear
10:15 PM 75.2 °F 53.6 °F 47% 29.89 in - West 4.5 mph - N/A   Clear
10:45 PM 71.6 °F 53.6 °F 53% 29.89 in - West 4.5 mph - N/A   Clear
11:15 PM 69.8 °F 53.6 °F 56% 29.89 in - NE 6.7 mph - N/A   Clear
11:45 PM 68.0 °F 53.6 °F 60% 29.89 in - NE 6.7 mph - N/A   Clear